HULIANWANG DIGUI-70

导读

“HULIANWANG DIGUI-70”是中国发射的人造卫星,于2025年8月17日升空。该卫星大概率服务于互联网星座部署,借助卫星互联网技术,有望弥补地面网络覆盖盲区,为偏远地区、海洋空域等提供宽带通信服务,助力全球网络互联互通,也将推动中国天地一体化信息网络建设进程。

基本信息
目录编号:
65230
目录名称:
HULIANWANG DIGUI-70
国际标识:
2025-178C
轨道中心:
EARTH
卫星名称:
HULIANWANG DIGUI-70
卫星全名:
HULIANWANG DIGUI-70
卫星状态:
在轨 (已飞行391 天)
发射日期:
2025-08-17 UTC
国别 :
中国 (CN)
星等 :
--
该卫星已列入 空间交会检测服务 Space Conjunction Data Service (SCDS) ,当前飞行风险评估等级: 无高风险
轨道信息
数据来源 国际轨道数据
星历时间: 2026-09-12T06:05:12+0800
8小时前
查看轨道信息
半长轴: 7546.051km
偏心率: 0.0001552
轨道倾角: 86.500°
近地点辐角 105.695°
升交点赤经 344.096°
平近点角 254.436°
近地点: 1166.742km
远地点: 1169.086km
周期: 108.727分钟
每日圈数: 13.244123
详细信息
使用方式:
暂无
2D轨道图
3D轨道图
轨道高度分析图
轨道倾角分析图
轨道综合分析图
查看轨道综合分析图
交会数据列表
事件ID 空间交会对象 最接近时刻(TCA) 交会距离 交会风险概率(CRP) 交会风险指数(CRI) 操作
CDM_260913-204804-529406-523023
2026-09-13T
20:48:43+0000
0.896 km
远距离
3.032898E-5 中风险 0.65
与全量物体交会距离演化趋势
与全量物体交会风险概率演化趋势